[[{"header":{"parameterUnit":"m.s-1","parameterCategory":2,"la1":30.2991,"la2":30.254,"lo1":-89.0895,"lo2":-89.0444,"dy":0.0017,"dx":0.0017,"nx":28,"ny":28,"refTime":"2026-01-31T03:00:00:Z","depth":"0","parameterNumber":2,"parameterNumberName":"U-component_of_CURRENTS"},"data":[0,0,0,0,0,0,0,0,0,0,0,0,0,0,0,0,0,0,0,0,0,0,0,0,0,0,0,0,0,0,0,0,0,0,0,0,0,0,0,0,0,0,0,0,0,0,0,0,0,0,0,0,0,0,0,0,0,0,-0.2445,-0.2445,0,-0.2488,-0.2488,-0.2488,-0.2465,-0.2464,-0.2463,-0.2462,-0.2523,-0.2526,-0.2528,0,0,0,0,0,0,0,0,0,0,0,0,0,-0.2396,-0.2397,-0.2445,-0.2445,-0.2446,-0.2487,-0.2488,-0.2489,-0.2466,-0.2464,-0.2463,-0.2462,-0.2522,-0.2525,-0.2528,0,0,0,0,0,0,0,0,0,0,0,0,0,-0.2426,-0.2397,-0.2445,-0.244,-0.244,-0.2487,-0.2488,-0.2489,-0.2466,-0.2464,-0.2463,-0.2461,-0.2521,-0.2525,-0.2529,-0.2588,0,0,-0.2541,-0.2543,0,0,0,0,0,0,0,0,-0.2424,-0.2428,-0.244,-0.244,-0.244,-0.247,-0.2493,-0.2523,-0.2466,-0.2456,-0.2462,-0.246,-0.2508,-0.2513,-0.2525,-0.2591,-0.2593,-0.2542,-0.2544,-0.2546,-0.2547,0,0,0,0,0,0,0,-0.2422,-0.2426,-0.2462,-0.2441,-0.2441,-0.2453,-0.2455,-0.2499,-0.2491,-0.2457,-0.2455,-0.2461,-0.2508,-0.2521,-0.2526,-0.2594,-0.2541,-0.2545,-0.2548,-0.2549,-0.2693,-0.2694,0,0,0,0,0,0,-0.2417,-0.2424,-0.246,-0.2463,-0.2428,-0.2455,-0.2457,-0.2462,-0.249,-0.2493,-0.2462,-0.2459,-0.2515,-0.2521,-0.2528,-0.2571,-0.2546,-0.2549,-0.2552,-0.2691,-0.2693,-0.2695,0,0,0,0,0,0,-0.2415,-0.2419,-0.2458,-0.2444,-0.245,-0.2458,-0.2463,-0.2463,-0.2468,-0.2494,-0.2497,-0.2465,-0.2514,-0.2522,-0.2557,-0.2574,-0.2551,-0.2555,-0.269,-0.2692,-0.2694,-0.2675,0,0,0,0,0,0,-0.2414,-0.2419,-0.2419,-0.2444,-0.2451,-0.2472,-0.2465,-0.2466,-0.2475,-0.2471,-0.2499,-0.2502,-0.2513,-0.2551,-0.2561,-0.2579,-0.2558,-0.2688,-0.2691,-0.2693,-0.2674,-0.2677,-0.2679,0,0,0,0,0,-0.2412,-0.2414,-0.2419,-0.2423,-0.2452,-0.2472,-0.2476,-0.2476,-0.2477,-0.2475,-0.2497,-0.2501,-0.2575,-0.2556,-0.2567,-0.2586,-0.2687,-0.269,-0.2693,-0.2673,-0.2676,-0.2679,0,0,0,0,0,0,-0.2395,-0.2413,-0.2418,-0.2426,-0.2443,-0.2467,-0.2469,-0.248,-0.2499,-0.2496,-0.252,-0.2526,-0.2564,-0.2586,-0.2564,-0.2638,-0.2633,-0.2639,-0.2614,-0.2617,-0.2619,-0.2626,-0.2561,0,0,0,0,0,-0.2394,-0.2395,-0.242,-0.2426,-0.2434,-0.2456,-0.2466,-0.247,-0.2491,-0.2497,-0.2516,-0.2549,-0.2591,-0.2608,-0.2642,-0.2687,-0.2674,-0.2709,-0.2711,-0.2713,-0.2728,-0.2749,-0.2754,-0.2705,-0.2705,-0.2705,0,0,-0.2389,-0.24,-0.2401,-0.2422,-0.2435,-0.2455,-0.2456,-0.2468,-0.2489,-0.2505,-0.2531,-0.2557,-0.2606,-0.2645,-0.2666,-0.2662,-0.2704,-0.2717,-0.2717,-0.2733,-0.2753,-0.2757,-0.2761,-0.2707,-0.2707,-0.2706,0,0,-0.2383,-0.2391,-0.2392,-0.2408,-0.2428,-0.2447,-0.2452,-0.2476,-0.2485,-0.2521,-0.2542,-0.258,-0.2631,-0.267,-0.27,-0.2745,-0.2716,-0.275,-0.2767,-0.2786,-0.2789,-0.2793,-0.2703,-0.2699,-0.275,-0.275,-0.275,0,-0.2379,-0.2384,-0.2396,-0.2409,-0.2423,-0.2445,-0.246,-0.2486,-0.2517,-0.2539,-0.2523,-0.2621,-0.2651,-0.2728,-0.2735,-0.275,-0.2715,-0.2745,-0.2786,-0.279,-0.2793,-0.2702,-0.2697,-0.275,-0.275,-0.275,-0.275,0,-0.2378,-0.2386,-0.2389,-0.2413,-0.2432,-0.2444,-0.2483,-0.2503,-0.252,-0.255,-0.2609,-0.265,-0.2707,-0.2724,-0.2744,-0.2799,-0.2743,-0.2781,-0.277,-0.2797,-0.2698,-0.2693,-0.2749,-0.2749,-0.2749,-0.275,0,0,-0.2361,-0.2382,-0.2384,-0.2392,-0.2433,-0.2447,-0.2492,-0.2539,-0.2571,-0.2604,-0.2646,-0.2724,-0.274,-0.2777,-0.2805,-0.2827,-0.2795,-0.281,-0.2811,-0.2702,-0.2745,-0.2667,-0.2653,-0.2832,-0.2833,-0.2834,-0.2634,0,-0.2355,-0.2365,-0.2388,-0.2409,-0.2417,-0.246,-0.2498,-0.2548,-0.2589,-0.2632,-0.2695,-0.2743,-0.2763,-0.2782,-0.2813,-0.282,-0.2796,-0.284,-0.2753,-0.2749,-0.2665,-0.2653,-0.2613,-0.2432,-0.263,-0.2629,-0.2629,0,-0.2345,-0.2351,-0.2363,-0.2397,-0.2407,-0.243,-0.2493,-0.2529,-0.2612,-0.2644,-0.2712,-0.2753,-0.2808,-0.2814,-0.2816,-0.2835,-0.2786,-0.2771,-0.2764,-0.2708,-0.2668,-0.2457,-0.2416,-0.2323,-0.2622,-0.2622,-0.2623,0,-0.2308,-0.2336,-0.2339,-0.2352,-0.2399,-0.2419,-0.2448,-0.2527,-0.2562,-0.2648,-0.2676,-0.2752,-0.2767,-0.2774,-0.2741,-0.2775,-0.2696,-0.2742,-0.2605,-0.2593,-0.2555,-0.254,-0.2413,-0.272,-0.272,-0.2721,-0.2721,0,-0.2287,-0.2289,-0.2318,-0.2319,-0.2332,-0.2379,-0.2412,-0.2463,-0.2536,-0.2573,-0.2669,-0.2696,-0.2764,-0.2737,-0.2714,-0.2618,-0.2663,-0.2593,-0.256,-0.2538,-0.2525,-0.2443,-0.24,-0.2713,-0.2715,-0.2716,-0.2718,0,-0.2242,-0.2261,-0.2265,-0.2301,-0.231,-0.2317,-0.2371,-0.2393,-0.2473,-0.2522,-0.2545,-0.2632,-0.2598,-0.2602,-0.2571,-0.2551,-0.2396,-0.2432,-0.2343,-0.2306,-0.2142,-0.21,-0.1913,-0.1811,-0.2267,-0.2265,-0.2262,0,-0.2218,-0.2213,-0.2236,-0.2225,-0.2236,-0.2254,-0.2261,-0.2345,-0.2376,-0.247,-0.2479,-0.2484,-0.2478,-0.2378,-0.2363,-0.2267,-0.2209,-0.2145,-0.2252,-0.2109,-0.2039,-0.2009,-0.1935,-0.214,-0.2137,-0.2135,-0.2133,0,-0.2167,-0.2176,-0.2172,-0.2149,-0.2146,-0.2154,-0.2176,-0.2195,-0.2287,-0.233,-0.2346,-0.2349,-0.2306,-0.2237,-0.2136,-0.2086,-0.204,-0.2089,-0.2004,-0.1976,-0.1876,-0.1769,-0.2214,-0.211,-0.2112,-0.2114,-0.2115,-0.2116,-0.212,-0.21,-0.2082,-0.2053,-0.2049,-0.2029,-0.1992,-0.2045,-0.2066,-0.2105,-0.217,-0.2148,-0.2144,-0.204,-0.1955,-0.181,-0.1837,-0.1779,-0.1738,-0.1718,-0.1645,-0.1984,-0.183,-0.183,-0.1831,-0.1831,-0.1832,0,-0.2041,-0.2012,-0.198,-0.1931,-0.1872,-0.1911,-0.1907,-0.1862,-0.1839,-0.193,-0.1938,-0.1922,-0.1842,-0.1794,-0.1678,-0.152,-0.1479,-0.1415,-0.1393,-0.1336,-0.169,-0.1717,-0.1458,-0.1458,-0.1458,-0.1458,-0.1458,-0.1458,-0.1992,-0.1925,-0.1896,-0.1759,-0.1715,-0.1608,-0.1574,-0.1554,-0.159,-0.1596,-0.1617,-0.1669,-0.1716,-0.154,-0.1313,-0.1242,-0.1082,-0.1043,-0.0959,-0.1255,-0.1288,-0.1319,-0.1337,-0.1002,-0.1001,-0.0618,-0.0615,-0.0612]},{"header":{"parameterUnit":"m.s-1","parameterCategory":2,"la1":30.2991,"la2":30.254,"lo1":-89.0895,"lo2":-89.0444,"dy":0.0017,"dx":0.0017,"nx":28,"ny":28,"refTime":"2026-01-31T03:00:00:Z","depth":"0","parameterNumber":3,"parameterNumberName":"V-component_of_CURRENTS"},"data":[0,0,0,0,0,0,0,0,0,0,0,0,0,0,0,0,0,0,0,0,0,0,0,0,0,0,0,0,0,0,0,0,0,0,0,0,0,0,0,0,0,0,0,0,0,0,0,0,0,0,0,0,0,0,0,0,0,0,-0.0583,-0.0583,0,-0.0573,-0.0573,-0.0573,-0.0544,-0.0544,-0.0543,-0.0543,-0.0465,-0.0464,-0.0462,0,0,0,0,0,0,0,0,0,0,0,0,0,-0.0564,-0.0564,-0.0583,-0.0583,-0.0583,-0.0573,-0.0573,-0.0573,-0.0544,-0.0544,-0.0543,-0.0542,-0.0466,-0.0464,-0.0462,0,0,0,0,0,0,0,0,0,0,0,0,0,-0.0564,-0.0564,-0.0583,-0.0569,-0.0567,-0.0573,-0.0573,-0.0573,-0.0544,-0.0544,-0.0543,-0.0542,-0.0466,-0.0464,-0.0462,-0.0463,0,0,-0.0455,-0.0454,0,0,0,0,0,0,0,0,-0.0564,-0.0564,-0.0571,-0.057,-0.0568,-0.056,-0.0538,-0.0533,-0.0545,-0.0552,-0.0543,-0.0542,-0.0492,-0.0487,-0.0487,-0.046,-0.0456,-0.0454,-0.0453,-0.0452,-0.0451,0,0,0,0,0,0,0,-0.0564,-0.0565,-0.0578,-0.0571,-0.0569,-0.0558,-0.0557,-0.0537,-0.0524,-0.0551,-0.0549,-0.055,-0.049,-0.0489,-0.0485,-0.0455,-0.0454,-0.0452,-0.0451,-0.045,-0.0424,-0.0425,0,0,0,0,0,0,-0.0569,-0.0565,-0.0579,-0.0578,-0.0565,-0.0559,-0.0558,-0.0563,-0.0526,-0.0521,-0.0551,-0.0549,-0.0494,-0.0487,-0.0482,-0.0491,-0.0452,-0.045,-0.0448,-0.0424,-0.0425,-0.0425,0,0,0,0,0,0,-0.0569,-0.0571,-0.0579,-0.0572,-0.0572,-0.056,-0.0566,-0.0563,-0.0559,-0.0527,-0.052,-0.0549,-0.0493,-0.0485,-0.0475,-0.0488,-0.0449,-0.0447,-0.0423,-0.0424,-0.0425,-0.0504,0,0,0,0,0,0,-0.0568,-0.0571,-0.0575,-0.0572,-0.0573,-0.0587,-0.0567,-0.0563,-0.0561,-0.0558,-0.0523,-0.0515,-0.0492,-0.0479,-0.0472,-0.0484,-0.0445,-0.0422,-0.0423,-0.0425,-0.0501,-0.0508,-0.0514,0,0,0,0,0,-0.0568,-0.0578,-0.0575,-0.0577,-0.058,-0.0587,-0.0587,-0.0574,-0.0562,-0.0566,-0.0548,-0.0516,-0.0482,-0.0478,-0.047,-0.0481,-0.0421,-0.0423,-0.0424,-0.0498,-0.0506,-0.0514,0,0,0,0,0,0,-0.0571,-0.0577,-0.0573,-0.0584,-0.0588,-0.0583,-0.0585,-0.0578,-0.0568,-0.0561,-0.0529,-0.0521,-0.0516,-0.0488,-0.0484,-0.0477,-0.0445,-0.0445,-0.0503,-0.0511,-0.0518,-0.0521,-0.0443,0,0,0,0,0,-0.0576,-0.0585,-0.0588,-0.0597,-0.0599,-0.0593,-0.0593,-0.0587,-0.0579,-0.0574,-0.0552,-0.0529,-0.0519,-0.0507,-0.049,-0.0486,-0.0453,-0.0487,-0.0494,-0.05,-0.0497,-0.046,-0.0463,-0.0431,-0.0431,-0.0431,0,0,-0.0579,-0.0584,-0.0588,-0.0598,-0.0597,-0.0613,-0.0591,-0.0596,-0.0609,-0.0566,-0.0572,-0.0552,-0.0524,-0.0526,-0.052,-0.0502,-0.0495,-0.0502,-0.0507,-0.0501,-0.0462,-0.0465,-0.0467,-0.0432,-0.0432,-0.0431,0,0,-0.0595,-0.0596,-0.061,-0.0618,-0.0624,-0.0625,-0.0628,-0.0627,-0.0625,-0.0632,-0.0608,-0.0597,-0.0576,-0.0563,-0.0553,-0.0584,-0.0534,-0.0576,-0.061,-0.0575,-0.0577,-0.0578,-0.0557,-0.0556,-0.0577,-0.0578,-0.0578,0,-0.0599,-0.062,-0.0615,-0.0634,-0.0647,-0.0634,-0.0657,-0.0658,-0.0654,-0.0658,-0.0641,-0.0619,-0.0595,-0.0598,-0.0613,-0.0599,-0.0573,-0.0585,-0.0584,-0.0584,-0.0584,-0.0561,-0.0559,-0.0581,-0.0581,-0.0581,-0.058,0,-0.0628,-0.0646,-0.0656,-0.0678,-0.0691,-0.0708,-0.0714,-0.0722,-0.0716,-0.0714,-0.0713,-0.0684,-0.0668,-0.0663,-0.0649,-0.0645,-0.0626,-0.06,-0.0565,-0.0592,-0.0567,-0.0563,-0.0587,-0.0586,-0.0585,-0.0584,0,0,-0.0638,-0.067,-0.0674,-0.0697,-0.0718,-0.0735,-0.0759,-0.078,-0.0795,-0.078,-0.0789,-0.0775,-0.075,-0.0737,-0.0711,-0.0682,-0.0672,-0.0647,-0.0644,-0.0629,-0.0602,-0.063,-0.0628,-0.0643,-0.0642,-0.0642,-0.059,0,-0.0664,-0.0709,-0.0719,-0.0768,-0.0795,-0.0801,-0.0827,-0.0842,-0.0843,-0.0847,-0.0813,-0.0809,-0.0781,-0.0773,-0.0743,-0.0682,-0.0662,-0.0689,-0.0574,-0.0571,-0.0594,-0.0625,-0.0716,-0.0681,-0.0586,-0.0586,-0.0585,0,-0.0693,-0.0722,-0.0771,-0.0821,-0.0833,-0.086,-0.0901,-0.092,-0.0922,-0.0921,-0.0905,-0.0874,-0.084,-0.0804,-0.0717,-0.0734,-0.0682,-0.0631,-0.0628,-0.062,-0.0591,-0.0633,-0.0677,-0.0712,-0.0578,-0.0579,-0.0579,0,-0.0712,-0.0763,-0.0805,-0.0822,-0.0871,-0.0897,-0.0919,-0.0941,-0.0962,-0.0958,-0.0961,-0.0916,-0.0881,-0.0807,-0.0717,-0.0713,-0.0611,-0.0588,-0.0567,-0.0568,-0.0606,-0.0612,-0.0671,-0.0532,-0.0532,-0.0532,-0.0533,0,-0.0743,-0.0779,-0.0817,-0.0844,-0.0901,-0.092,-0.097,-0.0989,-0.1004,-0.103,-0.0992,-0.0986,-0.0876,-0.0808,-0.0729,-0.0641,-0.0619,-0.058,-0.0558,-0.0639,-0.0648,-0.0646,-0.0632,-0.0531,-0.0531,-0.0531,-0.0532,0,-0.0761,-0.0783,-0.0838,-0.0892,-0.0913,-0.0951,-0.1008,-0.104,-0.1047,-0.1074,-0.1072,-0.1024,-0.094,-0.0838,-0.071,-0.0658,-0.0576,-0.0545,-0.0657,-0.065,-0.0678,-0.0664,-0.0599,-0.0568,-0.0521,-0.0521,-0.0521,0,-0.0774,-0.0801,-0.0871,-0.0908,-0.0936,-0.099,-0.1031,-0.1062,-0.1096,-0.11,-0.1112,-0.1042,-0.1014,-0.0847,-0.0747,-0.0633,-0.0585,-0.0638,-0.0652,-0.0705,-0.0672,-0.0616,-0.059,-0.0735,-0.0737,-0.0739,-0.074,0,-0.0799,-0.0818,-0.0862,-0.0938,-0.0991,-0.1053,-0.111,-0.1147,-0.1177,-0.12,-0.1203,-0.1176,-0.1043,-0.0984,-0.0842,-0.0753,-0.0672,-0.067,-0.0692,-0.0826,-0.0798,-0.0751,-0.0745,-0.0755,-0.0754,-0.0752,-0.0752,-0.0751,-0.0808,-0.0843,-0.0896,-0.0966,-0.1034,-0.111,-0.116,-0.1224,-0.1284,-0.1346,-0.1292,-0.1309,-0.1231,-0.1055,-0.0952,-0.0875,-0.0758,-0.086,-0.0832,-0.0763,-0.0764,-0.0803,-0.0806,-0.0805,-0.0804,-0.0803,-0.0802,0,-0.081,-0.0853,-0.0922,-0.1008,-0.1079,-0.1114,-0.1208,-0.1262,-0.1344,-0.1438,-0.1461,-0.149,-0.1426,-0.1305,-0.1183,-0.1091,-0.0993,-0.1021,-0.0991,-0.0945,-0.0979,-0.1026,-0.1118,-0.1118,-0.1118,-0.1118,-0.1118,-0.1118,-0.0812,-0.0863,-0.0901,-0.1016,-0.1083,-0.1178,-0.1232,-0.1334,-0.1427,-0.159,-0.1677,-0.1712,-0.1655,-0.1428,-0.13,-0.1229,-0.1137,-0.1108,-0.0994,-0.1091,-0.1075,-0.106,-0.1104,-0.1211,-0.1211,-0.0992,-0.0991,-0.099]}],[{"header":{"parameterUnit":"m.s-1","parameterCategory":2,"la1":30.2991,"la2":30.254,"lo1":-89.0895,"lo2":-89.0444,"dy":0.0017,"dx":0.0017,"nx":28,"ny":28,"refTime":"2026-01-31T03:00:00:Z","depth":"2","parameterNumber":2,"parameterNumberName":"U-component_of_CURRENTS"},"data":[0,0,0,0,0,0,0,0,0,0,0,0,0,0,0,0,0,0,0,0,0,0,0,0,0,0,0,0,0,0,0,0,0,0,0,0,0,0,0,0,0,0,0,0,0,0,0,0,0,0,0,0,0,0,0,0,0,0,-0.2444,-0.2445,0,-0.2486,-0.2487,-0.2487,-0.2465,-0.2464,-0.2463,-0.2462,-0.2522,-0.2525,-0.2528,0,0,0,0,0,0,0,0,0,0,0,0,0,-0.2396,-0.2397,-0.2444,-0.2445,-0.2445,-0.2486,-0.2487,-0.2487,-0.2465,-0.2464,-0.2462,-0.2461,-0.2521,-0.2525,-0.2528,0,0,0,0,0,0,0,0,0,0,0,0,0,-0.2425,-0.2397,-0.2444,-0.2439,-0.2439,-0.2486,-0.2487,-0.2488,-0.2465,-0.2464,-0.2462,-0.246,-0.252,-0.2524,-0.2528,-0.2586,0,0,-0.254,-0.2542,0,0,0,0,0,0,0,0,-0.2424,-0.2427,-0.2439,-0.244,-0.244,-0.2469,-0.2492,-0.2522,-0.2466,-0.2455,-0.2462,-0.246,-0.2508,-0.2513,-0.2524,-0.2589,-0.2592,-0.2541,-0.2543,-0.2545,-0.2546,0,0,0,0,0,0,0,-0.2421,-0.2425,-0.2461,-0.244,-0.244,-0.2453,-0.2454,-0.2498,-0.2491,-0.2456,-0.2455,-0.246,-0.2507,-0.252,-0.2525,-0.2593,-0.2541,-0.2544,-0.2547,-0.2548,-0.2691,-0.2692,0,0,0,0,0,0,-0.2416,-0.2423,-0.2459,-0.2462,-0.2428,-0.2455,-0.2457,-0.2461,-0.249,-0.2492,-0.2462,-0.2459,-0.2514,-0.252,-0.2527,-0.257,-0.2545,-0.2549,-0.2551,-0.2689,-0.2691,-0.2693,0,0,0,0,0,0,-0.2415,-0.2419,-0.2458,-0.2444,-0.2449,-0.2457,-0.2462,-0.2463,-0.2468,-0.2494,-0.2496,-0.2465,-0.2513,-0.2521,-0.2556,-0.2573,-0.255,-0.2554,-0.2688,-0.269,-0.2692,-0.2674,0,0,0,0,0,0,-0.2413,-0.2418,-0.2419,-0.2443,-0.245,-0.2471,-0.2464,-0.2465,-0.2474,-0.2471,-0.2498,-0.2502,-0.2512,-0.255,-0.256,-0.2578,-0.2557,-0.2686,-0.2689,-0.2691,-0.2673,-0.2675,-0.2677,0,0,0,0,0,-0.2411,-0.2413,-0.2419,-0.2423,-0.2451,-0.2471,-0.2475,-0.2475,-0.2476,-0.2474,-0.2496,-0.2501,-0.2574,-0.2555,-0.2566,-0.2585,-0.2685,-0.2688,-0.2691,-0.2672,-0.2674,-0.2677,0,0,0,0,0,0,-0.2394,-0.2413,-0.2418,-0.2426,-0.2442,-0.2466,-0.2468,-0.2479,-0.2498,-0.2496,-0.2519,-0.2525,-0.2563,-0.2585,-0.2562,-0.2637,-0.2631,-0.2637,-0.2613,-0.2616,-0.2618,-0.2625,-0.256,0,0,0,0,0,-0.2394,-0.2395,-0.242,-0.2425,-0.2433,-0.2456,-0.2465,-0.2469,-0.2491,-0.2496,-0.2515,-0.2548,-0.259,-0.2607,-0.264,-0.2685,-0.2672,-0.2707,-0.2709,-0.2711,-0.2726,-0.2748,-0.2753,-0.2703,-0.2703,-0.2703,0,0,-0.2389,-0.24,-0.2401,-0.2422,-0.2435,-0.2454,-0.2456,-0.2468,-0.2488,-0.2504,-0.2531,-0.2557,-0.2605,-0.2644,-0.2664,-0.266,-0.2702,-0.2715,-0.2715,-0.273,-0.2752,-0.2756,-0.276,-0.2705,-0.2705,-0.2704,0,0,-0.2383,-0.2391,-0.2392,-0.2409,-0.2428,-0.2447,-0.2451,-0.2476,-0.2485,-0.2521,-0.2541,-0.258,-0.263,-0.2668,-0.2698,-0.2742,-0.2714,-0.2748,-0.2764,-0.2785,-0.2788,-0.2792,-0.2702,-0.2698,-0.2748,-0.2748,-0.2748,0,-0.238,-0.2384,-0.2397,-0.2409,-0.2423,-0.2445,-0.246,-0.2485,-0.2516,-0.2538,-0.2522,-0.2619,-0.2649,-0.2726,-0.2733,-0.2748,-0.2713,-0.2743,-0.2785,-0.2789,-0.2793,-0.2701,-0.2696,-0.2748,-0.2748,-0.2748,-0.2748,0,-0.2378,-0.2386,-0.2389,-0.2413,-0.2432,-0.2444,-0.2482,-0.2503,-0.252,-0.2549,-0.2608,-0.2648,-0.2706,-0.2723,-0.2742,-0.2797,-0.2741,-0.278,-0.2769,-0.2796,-0.2697,-0.2692,-0.2747,-0.2747,-0.2747,-0.2748,0,0,-0.2361,-0.2383,-0.2384,-0.2392,-0.2432,-0.2446,-0.2491,-0.2537,-0.2569,-0.2602,-0.2645,-0.2722,-0.2737,-0.2775,-0.2803,-0.2825,-0.2793,-0.2809,-0.281,-0.2701,-0.2746,-0.2667,-0.2654,-0.2832,-0.2834,-0.2835,-0.2635,0,-0.2356,-0.2365,-0.2388,-0.2409,-0.2417,-0.246,-0.2497,-0.2546,-0.2587,-0.263,-0.2693,-0.2741,-0.2761,-0.278,-0.2811,-0.2819,-0.2795,-0.2839,-0.2754,-0.2749,-0.2665,-0.2654,-0.2475,-0.2282,-0.263,-0.2629,-0.2629,0,-0.2346,-0.2352,-0.2364,-0.2397,-0.2406,-0.243,-0.2491,-0.2527,-0.261,-0.2642,-0.2709,-0.2751,-0.2806,-0.2813,-0.2815,-0.2835,-0.2786,-0.2772,-0.2765,-0.2709,-0.2668,-0.2332,-0.2261,-0.2622,-0.2622,-0.2623,-0.2623,0,-0.2309,-0.2337,-0.234,-0.2352,-0.2398,-0.2418,-0.2447,-0.2525,-0.256,-0.2646,-0.2675,-0.2751,-0.2767,-0.2774,-0.2741,-0.2776,-0.2698,-0.2744,-0.2606,-0.2594,-0.2439,-0.2414,-0.2722,-0.2722,-0.2723,-0.2723,-0.2724,0,-0.2288,-0.229,-0.2318,-0.2319,-0.2332,-0.2378,-0.2412,-0.2462,-0.2535,-0.2571,-0.2667,-0.2695,-0.2764,-0.2738,-0.2715,-0.2619,-0.2665,-0.2594,-0.2562,-0.2418,-0.2395,-0.272,-0.2722,-0.2716,-0.2717,-0.2719,-0.272,0,-0.2243,-0.2262,-0.2266,-0.2302,-0.2311,-0.2317,-0.237,-0.2392,-0.2472,-0.2521,-0.2545,-0.2631,-0.2599,-0.2603,-0.2573,-0.2553,-0.2494,-0.2434,-0.2205,-0.2154,-0.2367,-0.2371,-0.2277,-0.2273,-0.2269,-0.2267,-0.2264,0,-0.222,-0.2215,-0.2237,-0.2226,-0.2237,-0.2255,-0.2261,-0.2345,-0.2375,-0.2469,-0.2478,-0.2484,-0.2466,-0.2367,-0.231,-0.2201,-0.2327,-0.2003,-0.209,-0.2355,-0.2333,-0.2342,-0.2351,-0.1816,-0.181,-0.1805,-0.1801,0,-0.2169,-0.2177,-0.2173,-0.215,-0.2147,-0.2154,-0.2176,-0.2194,-0.2285,-0.2313,-0.2329,-0.232,-0.2242,-0.2078,-0.196,-0.1903,-0.2028,-0.1906,-0.2237,-0.1993,-0.1916,-0.1896,-0.192,-0.1759,-0.1763,-0.1766,-0.1769,-0.177,-0.2122,-0.2102,-0.2084,-0.2055,-0.2051,-0.2029,-0.1992,-0.2001,-0.2001,-0.1975,-0.2079,-0.197,-0.1975,-0.1702,-0.1607,-0.1552,-0.1721,-0.1689,-0.1705,-0.1726,-0.1746,-0.1673,-0.1464,-0.1467,-0.1469,-0.1471,-0.1472,0,-0.2035,-0.2015,-0.1982,-0.1933,-0.1864,-0.1912,-0.1906,-0.1816,-0.172,-0.1712,-0.1655,-0.1487,-0.1343,-0.1356,-0.1201,-0.1204,-0.121,-0.1179,-0.119,-0.1232,-0.1269,-0.1269,-0.0859,-0.0857,-0.0855,-0.0853,0,0,-0.1984,-0.1913,-0.1885,-0.1742,-0.1706,-0.1581,-0.1547,-0.1428,-0.1374,-0.1235,-0.1161,-0.1172,-0.128,-0.1026,-0.1004,-0.0907,-0.1058,-0.0863,-0.1353,-0.1405,-0.144,-0.156,-0.1606,0,0,0,0,0]},{"header":{"parameterUnit":"m.s-1","parameterCategory":2,"la1":30.2991,"la2":30.254,"lo1":-89.0895,"lo2":-89.0444,"dy":0.0017,"dx":0.0017,"nx":28,"ny":28,"refTime":"2026-01-31T03:00:00:Z","depth":"2","parameterNumber":3,"parameterNumberName":"V-component_of_CURRENTS"},"data":[0,0,0,0,0,0,0,0,0,0,0,0,0,0,0,0,0,0,0,0,0,0,0,0,0,0,0,0,0,0,0,0,0,0,0,0,0,0,0,0,0,0,0,0,0,0,0,0,0,0,0,0,0,0,0,0,0,0,-0.0536,-0.0536,0,-0.0526,-0.0526,-0.0525,-0.0498,-0.0497,-0.0497,-0.0496,-0.042,-0.0419,-0.0417,0,0,0,0,0,0,0,0,0,0,0,0,0,-0.0516,-0.0516,-0.0536,-0.0536,-0.0536,-0.0526,-0.0526,-0.0525,-0.0498,-0.0497,-0.0496,-0.0496,-0.0421,-0.0419,-0.0417,0,0,0,0,0,0,0,0,0,0,0,0,0,-0.0516,-0.0517,-0.0536,-0.0521,-0.052,-0.0526,-0.0526,-0.0525,-0.0498,-0.0497,-0.0496,-0.0496,-0.0421,-0.0419,-0.0417,-0.0418,0,0,-0.041,-0.0409,0,0,0,0,0,0,0,0,-0.0516,-0.0517,-0.0524,-0.0522,-0.0521,-0.0513,-0.0491,-0.0486,-0.0498,-0.0505,-0.0496,-0.0495,-0.0446,-0.0442,-0.0441,-0.0414,-0.0411,-0.041,-0.0408,-0.0407,-0.0407,0,0,0,0,0,0,0,-0.0516,-0.0517,-0.0531,-0.0524,-0.0522,-0.0511,-0.051,-0.049,-0.0478,-0.0504,-0.0503,-0.0504,-0.0445,-0.0444,-0.0439,-0.041,-0.041,-0.0408,-0.0406,-0.0405,-0.0381,-0.0382,0,0,0,0,0,0,-0.0521,-0.0517,-0.0531,-0.053,-0.0518,-0.0512,-0.0511,-0.0516,-0.048,-0.0474,-0.0504,-0.0502,-0.0448,-0.0442,-0.0436,-0.0447,-0.0407,-0.0405,-0.0404,-0.038,-0.0381,-0.0382,0,0,0,0,0,0,-0.0521,-0.0523,-0.0531,-0.0524,-0.0524,-0.0513,-0.0518,-0.0516,-0.0512,-0.048,-0.0473,-0.0503,-0.0447,-0.0439,-0.043,-0.0443,-0.0404,-0.0402,-0.0379,-0.038,-0.0381,-0.0461,0,0,0,0,0,0,-0.0521,-0.0523,-0.0528,-0.0525,-0.0525,-0.0539,-0.0519,-0.0516,-0.0514,-0.0512,-0.0477,-0.047,-0.0446,-0.0434,-0.0428,-0.0439,-0.04,-0.0378,-0.038,-0.0381,-0.0457,-0.0464,-0.0471,0,0,0,0,0,-0.052,-0.0531,-0.0528,-0.0529,-0.0532,-0.054,-0.0539,-0.0527,-0.0515,-0.052,-0.0502,-0.0471,-0.0438,-0.0433,-0.0425,-0.0437,-0.0378,-0.0379,-0.0381,-0.0454,-0.0463,-0.047,0,0,0,0,0,0,-0.0524,-0.0529,-0.0526,-0.0537,-0.054,-0.0536,-0.0538,-0.0531,-0.0521,-0.0515,-0.0483,-0.0475,-0.0472,-0.0444,-0.0439,-0.0433,-0.0401,-0.0401,-0.0459,-0.0467,-0.0474,-0.0478,-0.0398,0,0,0,0,0,-0.0529,-0.0538,-0.054,-0.055,-0.0552,-0.0546,-0.0546,-0.0541,-0.0533,-0.0528,-0.0507,-0.0485,-0.0474,-0.0463,-0.0446,-0.0443,-0.0409,-0.0444,-0.0451,-0.0457,-0.0455,-0.0418,-0.0422,-0.0387,-0.0387,-0.0387,0,0,-0.0532,-0.0537,-0.0541,-0.0551,-0.055,-0.0566,-0.0544,-0.0549,-0.0563,-0.052,-0.0527,-0.0507,-0.0479,-0.0482,-0.0476,-0.0459,-0.0452,-0.0459,-0.0464,-0.0459,-0.042,-0.0424,-0.0426,-0.0388,-0.0388,-0.0388,0,0,-0.0548,-0.0549,-0.0563,-0.0571,-0.0577,-0.0578,-0.0582,-0.0581,-0.058,-0.0587,-0.0563,-0.0553,-0.0533,-0.052,-0.051,-0.0541,-0.0491,-0.0534,-0.0569,-0.0534,-0.0537,-0.0538,-0.0516,-0.0515,-0.0535,-0.0535,-0.0535,0,-0.0553,-0.0573,-0.0568,-0.0587,-0.06,-0.0587,-0.0611,-0.0612,-0.0609,-0.0613,-0.0596,-0.0575,-0.0552,-0.0556,-0.0571,-0.0556,-0.0531,-0.0543,-0.0543,-0.0544,-0.0544,-0.0521,-0.0519,-0.0539,-0.0539,-0.0538,-0.0538,0,-0.0581,-0.06,-0.061,-0.0632,-0.0645,-0.0662,-0.0669,-0.0677,-0.0672,-0.067,-0.067,-0.0641,-0.0627,-0.0622,-0.0608,-0.0605,-0.0586,-0.0559,-0.0524,-0.0552,-0.0526,-0.0523,-0.0545,-0.0544,-0.0542,-0.0541,0,0,-0.0592,-0.0624,-0.0629,-0.0652,-0.0672,-0.0689,-0.0714,-0.0735,-0.0752,-0.0737,-0.0748,-0.0734,-0.071,-0.0697,-0.0671,-0.0643,-0.0633,-0.0608,-0.0604,-0.0589,-0.0565,-0.0592,-0.059,-0.0605,-0.0604,-0.0604,-0.0552,0,-0.0619,-0.0664,-0.0673,-0.0723,-0.075,-0.0756,-0.0783,-0.0798,-0.08,-0.0805,-0.0772,-0.0769,-0.0741,-0.0733,-0.0705,-0.0644,-0.0624,-0.065,-0.0536,-0.0533,-0.0556,-0.0587,-0.0478,-0.0426,-0.0548,-0.0547,-0.0547,0,-0.0649,-0.0678,-0.0727,-0.0777,-0.0789,-0.0816,-0.0858,-0.0877,-0.0881,-0.088,-0.0865,-0.0835,-0.0802,-0.0767,-0.0681,-0.0697,-0.0645,-0.0595,-0.0591,-0.0582,-0.0553,-0.0413,-0.0414,-0.054,-0.054,-0.0541,-0.0541,0,-0.0668,-0.0719,-0.0761,-0.0779,-0.0827,-0.0854,-0.0877,-0.0899,-0.0921,-0.0919,-0.0923,-0.0879,-0.0845,-0.0772,-0.0681,-0.0678,-0.0576,-0.0553,-0.0531,-0.0532,-0.04,-0.0391,-0.0498,-0.0498,-0.0498,-0.0498,-0.0499,0,-0.07,-0.0736,-0.0774,-0.0801,-0.0859,-0.0877,-0.0929,-0.0949,-0.0964,-0.0991,-0.0954,-0.0949,-0.0841,-0.0773,-0.0693,-0.0605,-0.0584,-0.0545,-0.0522,-0.0429,-0.0423,-0.0484,-0.0483,-0.0496,-0.0497,-0.0497,-0.0498,0,-0.0719,-0.074,-0.0796,-0.085,-0.0871,-0.091,-0.0967,-0.1,-0.1008,-0.1036,-0.1035,-0.0988,-0.0905,-0.0804,-0.0675,-0.0623,-0.0534,-0.0509,-0.0421,-0.0392,-0.0512,-0.0515,-0.0483,-0.0484,-0.0484,-0.0485,-0.0485,0,-0.0732,-0.0759,-0.0829,-0.0866,-0.0895,-0.0949,-0.099,-0.1022,-0.1057,-0.1062,-0.1075,-0.1007,-0.0967,-0.0801,-0.0633,-0.05,-0.0541,-0.0394,-0.038,-0.053,-0.051,-0.0513,-0.0516,-0.0228,-0.0226,-0.0225,-0.0224,0,-0.0757,-0.0777,-0.0821,-0.0897,-0.095,-0.1012,-0.1069,-0.1107,-0.1137,-0.1146,-0.115,-0.1113,-0.0923,-0.0721,-0.0552,-0.046,-0.0409,-0.0367,-0.0505,-0.0278,-0.0293,-0.0274,-0.0283,-0.0211,-0.0212,-0.0213,-0.0214,-0.0214,-0.0768,-0.0802,-0.0855,-0.0925,-0.0994,-0.1069,-0.1118,-0.1118,-0.1156,-0.111,-0.114,-0.1002,-0.0859,-0.0531,-0.0401,-0.0257,-0.032,-0.0284,-0.0285,-0.0289,-0.0298,-0.0316,-0.024,-0.0241,-0.0242,-0.0243,-0.0244,0,-0.0753,-0.0813,-0.0882,-0.0967,-0.1011,-0.1073,-0.1167,-0.1123,-0.1101,-0.1029,-0.0967,-0.0752,-0.0556,-0.041,-0.0145,-0.0084,-0.0026,-0.0088,-0.0015,-0.0028,-0.0041,-0.0035,0.0093,0.0094,0.0095,0.0096,0,0,-0.0752,-0.0793,-0.083,-0.0925,-0.1009,-0.1036,-0.1087,-0.1006,-0.0922,-0.0788,-0.0681,-0.0587,-0.0492,-0.0254,-0.0134,-0.0005,-0.003,0.0028,-0.0243,-0.018,-0.0193,-0.0149,-0.0156,0,0,0,0,0]}],[{"header":{"parameterUnit":"m.s-1","parameterCategory":2,"la1":30.2991,"la2":30.254,"lo1":-89.0895,"lo2":-89.0444,"dy":0.0017,"dx":0.0017,"nx":28,"ny":28,"refTime":"2026-01-31T03:00:00:Z","depth":"4","parameterNumber":2,"parameterNumberName":"U-component_of_CURRENTS"},"data":[0,0,0,0,0,0,0,0,0,0,0,0,0,0,0,0,0,0,0,0,0,0,0,0,0,0,0,0,0,0,0,0,0,0,0,0,0,0,0,0,0,0,0,0,0,0,0,0,0,0,0,0,0,0,0,0,0,0,-0.1569,-0.157,0,-0.1611,-0.1612,-0.1612,-0.1638,-0.1638,-0.1638,-0.1639,-0.1715,-0.1717,-0.1719,0,0,0,0,0,0,0,0,0,0,0,0,0,-0.1517,-0.1517,-0.1569,-0.157,-0.157,-0.1611,-0.1612,-0.1612,-0.1638,-0.1638,-0.1638,-0.1639,-0.1715,-0.1717,-0.1719,0,0,0,0,0,0,0,0,0,0,0,0,0,-0.1546,-0.1518,-0.1569,-0.1589,-0.1591,-0.1611,-0.1612,-0.1612,-0.1638,-0.1638,-0.1638,-0.1639,-0.1714,-0.1716,-0.1719,-0.1731,0,0,-0.1728,-0.1729,0,0,0,0,0,0,0,0,-0.1545,-0.1548,-0.1585,-0.1587,-0.159,-0.162,-0.1621,-0.1654,-0.1638,-0.1619,-0.1639,-0.1639,-0.1687,-0.1692,-0.1698,-0.1734,-0.1738,-0.1728,-0.173,-0.1731,-0.1732,0,0,0,0,0,0,0,-0.1543,-0.1547,-0.1585,-0.1586,-0.1589,-0.1597,-0.1601,-0.1627,-0.1651,-0.1621,-0.1623,-0.1629,-0.1688,-0.1695,-0.17,-0.1739,-0.1728,-0.173,-0.1732,-0.1733,-0.1848,-0.185,0,0,0,0,0,0,-0.1538,-0.1545,-0.1584,-0.1587,-0.1568,-0.1598,-0.1603,-0.161,-0.165,-0.1657,-0.1628,-0.163,-0.169,-0.1697,-0.1703,-0.1763,-0.1731,-0.1734,-0.1735,-0.1847,-0.1849,-0.185,0,0,0,0,0,0,-0.1537,-0.1541,-0.1582,-0.1567,-0.1573,-0.1598,-0.1606,-0.161,-0.1641,-0.1655,-0.1662,-0.1657,-0.169,-0.1699,-0.1741,-0.1765,-0.1735,-0.1737,-0.1845,-0.1848,-0.185,-0.1856,0,0,0,0,0,0,-0.1535,-0.1541,-0.1558,-0.1567,-0.1574,-0.1605,-0.1606,-0.1611,-0.1643,-0.1646,-0.1682,-0.1688,-0.1691,-0.1737,-0.1744,-0.1768,-0.1739,-0.1844,-0.1846,-0.1849,-0.1854,-0.1858,-0.1862,0,0,0,0,0,-0.1533,-0.1548,-0.1558,-0.1564,-0.1592,-0.1605,-0.161,-0.1628,-0.1644,-0.1658,-0.1684,-0.1688,-0.1759,-0.174,-0.1748,-0.1774,-0.1842,-0.1846,-0.1849,-0.1853,-0.1858,-0.1862,0,0,0,0,0,0,-0.1537,-0.1552,-0.1564,-0.1585,-0.16,-0.161,-0.163,-0.1644,-0.1676,-0.1689,-0.1703,-0.1711,-0.1757,-0.1769,-0.1748,-0.1817,-0.1803,-0.1808,-0.1804,-0.1808,-0.1812,-0.1797,-0.1742,0,0,0,0,0,-0.1545,-0.1562,-0.1575,-0.1595,-0.1605,-0.1625,-0.164,-0.1652,-0.1674,-0.169,-0.1714,-0.1746,-0.1772,-0.1793,-0.1817,-0.1856,-0.1839,-0.188,-0.1884,-0.1886,-0.1881,-0.1856,-0.1855,-0.1861,-0.1861,-0.186,0,0,-0.1554,-0.1565,-0.1577,-0.1598,-0.1614,-0.163,-0.1635,-0.1662,-0.1683,-0.1694,-0.1741,-0.1762,-0.1786,-0.1823,-0.1846,-0.1839,-0.1882,-0.189,-0.1893,-0.1885,-0.1859,-0.1857,-0.1857,-0.1863,-0.1862,-0.1862,0,0,-0.1566,-0.159,-0.1603,-0.1617,-0.1643,-0.1654,-0.1667,-0.1692,-0.1713,-0.1753,-0.1767,-0.1796,-0.1848,-0.1857,-0.1871,-0.1914,-0.1901,-0.1937,-0.1945,-0.192,-0.1919,-0.1917,-0.1911,-0.1908,-0.194,-0.194,-0.194,0,-0.1581,-0.1593,-0.1611,-0.1624,-0.1639,-0.1667,-0.1682,-0.1708,-0.1745,-0.1759,-0.1773,-0.1829,-0.1857,-0.1882,-0.1904,-0.192,-0.1909,-0.1922,-0.1921,-0.1919,-0.1917,-0.1911,-0.1908,-0.1941,-0.1941,-0.1941,-0.1941,0,-0.1587,-0.1611,-0.1621,-0.1647,-0.1666,-0.1687,-0.1715,-0.1745,-0.1777,-0.1793,-0.1832,-0.1856,-0.1881,-0.1906,-0.1924,-0.1936,-0.1935,-0.1923,-0.19,-0.1916,-0.191,-0.1907,-0.1942,-0.1942,-0.1942,-0.1941,0,0,-0.1583,-0.1619,-0.1627,-0.1639,-0.168,-0.1691,-0.1734,-0.1762,-0.1778,-0.1821,-0.1825,-0.1889,-0.1894,-0.191,-0.1929,-0.1925,-0.1919,-0.1928,-0.1926,-0.1906,-0.1877,-0.1764,-0.175,-0.1902,-0.1901,-0.1901,-0.1883,0,-0.1585,-0.1609,-0.163,-0.1661,-0.1672,-0.171,-0.1738,-0.1772,-0.1799,-0.1809,-0.1836,-0.1852,-0.1898,-0.1903,-0.1908,-0.1909,-0.191,-0.1926,-0.1879,-0.1878,-0.176,-0.1741,-0.1898,-0.1881,-0.188,-0.1879,-0.1879,0,-0.1575,-0.1593,-0.1622,-0.1655,-0.1664,-0.1692,-0.1727,-0.1755,-0.1781,-0.1798,-0.1814,-0.1822,-0.184,-0.1858,-0.1868,-0.1876,-0.1885,-0.1885,-0.1884,-0.1767,-0.1757,-0.186,-0.1873,-0.1873,-0.1874,-0.1874,-0.1875,0,-0.1539,-0.1582,-0.1606,-0.162,-0.1666,-0.169,-0.1718,-0.1754,-0.176,-0.1779,-0.1762,-0.179,-0.178,-0.1796,-0.1824,-0.184,-0.181,-0.1822,-0.1733,-0.1726,-0.1832,-0.1834,-0.1815,-0.1815,-0.1815,-0.1815,-0.1815,0,-0.1509,-0.1532,-0.1596,-0.1605,-0.1628,-0.1671,-0.1687,-0.1718,-0.1728,-0.1708,-0.1749,-0.1715,-0.1761,-0.1751,-0.1791,-0.1742,-0.1784,-0.1718,-0.1699,-0.1841,-0.1844,-0.1831,-0.1833,-0.1815,-0.1815,-0.1815,-0.1815,0,-0.1458,-0.1504,-0.1533,-0.1593,-0.161,-0.1628,-0.1661,-0.1653,-0.1684,-0.1646,-0.1642,-0.1648,-0.1636,-0.1676,-0.1687,-0.1668,-0.1655,-0.1635,-0.179,-0.1783,-0.1603,-0.1606,-0.1513,-0.1509,-0.1505,-0.1502,-0.1499,0,-0.1428,-0.1441,-0.1514,-0.1526,-0.1557,-0.1587,-0.1588,-0.1629,-0.1607,-0.1592,-0.1547,-0.1535,-0.1539,-0.1458,-0.1532,-0.1559,-0.1566,-0.1543,-0.157,-0.1574,-0.1566,-0.1575,-0.1583,-0.1493,-0.1492,-0.1491,-0.149,0,-0.137,-0.1416,-0.1438,-0.1462,-0.148,-0.1477,-0.1482,-0.1448,-0.1466,-0.1502,-0.1407,-0.1379,-0.1351,-0.1372,-0.1391,-0.1425,-0.154,-0.1503,-0.1512,-0.1538,-0.1548,-0.1546,-0.1558,-0.1477,-0.1479,-0.148,-0.1481,0,-0.1332,-0.1335,-0.1372,-0.1374,-0.1392,-0.1345,-0.1364,-0.1318,-0.13,-0.1291,-0.1263,-0.1275,-0.1317,-0.1301,-0.1327,-0.1331,-0.1334,-0.1306,-0.1326,-0.1341,-0.1296,-0.1285,-0.1095,0,0,0,0,0,-0.1283,-0.1267,-0.1269,-0.1258,-0.1268,-0.127,-0.1272,-0.1287,-0.1301,-0.12,-0.1225,-0.1202,-0.1184,-0.1207,-0.1184,-0.128,-0.1358,-0.1248,-0.1342,-0.1404,-0.1419,-0.1384,0,0,0,0,0,0,-0.1247,-0.1257,-0.1237,-0.1151,-0.1121,-0.1104,-0.1101,-0.1115,-0.1066,-0.1099,-0.1106,-0.1139,-0.1162,-0.1191,-0.1164,-0.1175,-0.1211,-0.1282,-0.1279,-0.1395,-0.1409,-0.1421,-0.1391,0,0,0,0,0]},{"header":{"parameterUnit":"m.s-1","parameterCategory":2,"la1":30.2991,"la2":30.254,"lo1":-89.0895,"lo2":-89.0444,"dy":0.0017,"dx":0.0017,"nx":28,"ny":28,"refTime":"2026-01-31T03:00:00:Z","depth":"4","parameterNumber":3,"parameterNumberName":"V-component_of_CURRENTS"},"data":[0,0,0,0,0,0,0,0,0,0,0,0,0,0,0,0,0,0,0,0,0,0,0,0,0,0,0,0,0,0,0,0,0,0,0,0,0,0,0,0,0,0,0,0,0,0,0,0,0,0,0,0,0,0,0,0,0,0,0.0008,0.0008,0,0.0012,0.0012,0.0012,0.0027,0.0027,0.0028,0.0028,0.0049,0.0049,0.0049,0,0,0,0,0,0,0,0,0,0,0,0,0,0.0024,0.0023,0.0008,0.0008,0.0008,0.0012,0.0012,0.0012,0.0027,0.0027,0.0028,0.0028,0.0049,0.0049,0.0049,0,0,0,0,0,0,0,0,0,0,0,0,0,0.0022,0.0023,0.0008,0.0016,0.0016,0.0012,0.0012,0.0012,0.0027,0.0027,0.0028,0.0028,0.0049,0.0049,0.0049,0.0043,0,0,0.0051,0.0051,0,0,0,0,0,0,0,0,0.0022,0.0021,0.0014,0.0015,0.0016,0.0019,0.0025,0.0023,0.0027,0.0023,0.0028,0.0028,0.004,0.0041,0.0041,0.0044,0.0045,0.0051,0.0051,0.0051,0.0051,0,0,0,0,0,0,0,0.0022,0.0021,0.001,0.0014,0.0015,0.0022,0.0022,0.0025,0.003,0.0024,0.0025,0.0024,0.004,0.0041,0.0042,0.0045,0.0051,0.0051,0.0051,0.0052,0.001,0.0008,0,0,0,0,0,0,0.0019,0.0021,0.001,0.001,0.0019,0.0021,0.0022,0.0018,0.0029,0.0031,0.0024,0.0025,0.004,0.0041,0.0043,0.0003,0.0051,0.0052,0.0052,0.0011,0.0009,0.0008,0,0,0,0,0,0,0.0019,0.0018,0.001,0.0016,0.0015,0.002,0.0016,0.0018,0.0015,0.0029,0.0032,0.002,0.004,0.0042,0.0028,0.0006,0.0052,0.0052,0.0013,0.001,0.0009,-0.0055,0,0,0,0,0,0,0.002,0.0018,0.0012,0.0015,0.0014,-0.0001,0.0016,0.0017,0.0014,0.0016,0.0026,0.0029,0.0041,0.0027,0.0028,0.0007,0.0052,0.0014,0.0012,0.0009,-0.0051,-0.0059,-0.0065,0,0,0,0,0,0.002,0.0011,0.0012,0.0011,0.0007,-0.0002,-0.0002,0.0005,0.0013,0.0006,0.0006,0.0028,0.0012,0.0026,0.0028,0.0006,0.0016,0.0012,0.0009,-0.0048,-0.0057,-0.0065,0,0,0,0,0,0,0.0014,0.0011,0.0013,0.0003,-0.0003,0.0001,-0.0005,-0.0,-0.0005,-0.0004,0.0011,0.0013,-0.0009,0.0006,0.0021,-0.0015,0.0017,0.0014,-0.0027,-0.0035,-0.0043,-0.005,0.0053,0,0,0,0,0,0.0009,0.0002,-0.0001,-0.001,-0.0013,-0.001,-0.0013,-0.0011,-0.0013,-0.0014,-0.001,-0.0009,-0.002,-0.0022,-0.0025,-0.0042,-0.002,-0.0056,-0.0063,-0.0069,-0.0075,-0.007,-0.0077,-0.0002,-0.0002,-0.0002,0,0,0.0005,0.0002,-0.0002,-0.0012,-0.0013,-0.0032,-0.0011,-0.0019,-0.0041,-0.0011,-0.0038,-0.0034,-0.0032,-0.0057,-0.0064,-0.0046,-0.0078,-0.0073,-0.0078,-0.0081,-0.0074,-0.0081,-0.0087,-0.0004,-0.0004,-0.0004,0,0,-0.0011,-0.0012,-0.0025,-0.0035,-0.0043,-0.0047,-0.0053,-0.0057,-0.0064,-0.0088,-0.0079,-0.0093,-0.0099,-0.0109,-0.0113,-0.0162,-0.0118,-0.0158,-0.0198,-0.0193,-0.0199,-0.0204,-0.0177,-0.0178,-0.0159,-0.0159,-0.0159,0,-0.0017,-0.0036,-0.0031,-0.005,-0.0066,-0.0058,-0.0085,-0.0095,-0.0106,-0.0122,-0.0106,-0.0135,-0.013,-0.0169,-0.0186,-0.0179,-0.0156,-0.0164,-0.0202,-0.0206,-0.021,-0.0181,-0.0182,-0.0162,-0.0162,-0.0162,-0.0161,0,-0.0044,-0.0064,-0.0074,-0.01,-0.0117,-0.0137,-0.0154,-0.0172,-0.0179,-0.0188,-0.0223,-0.0218,-0.0234,-0.0237,-0.0226,-0.0258,-0.0226,-0.0212,-0.0177,-0.0221,-0.0188,-0.0188,-0.0167,-0.0166,-0.0165,-0.0164,0,0,-0.0051,-0.0087,-0.0092,-0.0119,-0.0147,-0.0167,-0.0208,-0.0247,-0.0278,-0.0285,-0.0321,-0.0343,-0.0328,-0.0333,-0.0319,-0.0314,-0.032,-0.0276,-0.0274,-0.0245,-0.0289,-0.0254,-0.025,-0.0307,-0.0308,-0.0308,-0.0251,0,-0.0078,-0.0125,-0.0139,-0.0197,-0.0226,-0.0244,-0.0287,-0.032,-0.0339,-0.0369,-0.037,-0.0394,-0.0369,-0.0372,-0.0369,-0.0334,-0.0325,-0.0336,-0.0254,-0.0252,-0.0213,-0.0251,-0.031,-0.025,-0.025,-0.025,-0.025,0,-0.0105,-0.0136,-0.0191,-0.0255,-0.027,-0.0307,-0.0374,-0.0408,-0.0447,-0.0459,-0.0476,-0.0466,-0.0473,-0.0437,-0.0401,-0.0404,-0.0356,-0.0321,-0.0317,-0.0264,-0.0218,-0.02,-0.025,-0.025,-0.025,-0.025,-0.025,0,-0.0117,-0.0178,-0.0225,-0.0246,-0.0311,-0.0349,-0.0388,-0.0438,-0.0473,-0.0509,-0.0523,-0.0528,-0.0521,-0.0478,-0.0405,-0.0402,-0.0345,-0.0329,-0.0253,-0.0248,-0.0265,-0.0261,-0.0305,-0.0305,-0.0305,-0.0305,-0.0305,0,-0.0142,-0.0184,-0.0237,-0.0265,-0.0336,-0.0373,-0.0445,-0.0481,-0.0526,-0.0563,-0.0563,-0.0574,-0.053,-0.0489,-0.0422,-0.0335,-0.0357,-0.0267,-0.024,-0.0292,-0.0291,-0.0264,-0.026,-0.0303,-0.0303,-0.0304,-0.0304,0,-0.0148,-0.018,-0.0239,-0.0312,-0.0343,-0.0391,-0.0477,-0.0522,-0.0557,-0.0599,-0.0608,-0.0608,-0.0553,-0.049,-0.0411,-0.0351,-0.0274,-0.0234,-0.0284,-0.0259,-0.0173,-0.0174,-0.0152,-0.015,-0.0149,-0.0148,-0.0147,0,-0.0155,-0.0183,-0.0265,-0.0303,-0.0341,-0.0416,-0.0469,-0.0532,-0.0569,-0.061,-0.0622,-0.0595,-0.0577,-0.0438,-0.0375,-0.0251,-0.0229,-0.0184,-0.0197,-0.0186,-0.0162,-0.0164,-0.0166,-0.0145,-0.0145,-0.0145,-0.0144,0,-0.0167,-0.019,-0.0234,-0.0308,-0.0372,-0.0441,-0.0513,-0.0543,-0.0601,-0.0633,-0.0622,-0.0571,-0.0507,-0.042,-0.0324,-0.0236,-0.0217,-0.0171,-0.0173,-0.0185,-0.0177,-0.0155,-0.0159,-0.014,-0.014,-0.0141,-0.0141,0,-0.0169,-0.0195,-0.0244,-0.0308,-0.0381,-0.0441,-0.049,-0.0533,-0.0573,-0.0613,-0.0604,-0.0552,-0.0535,-0.0411,-0.0323,-0.0236,-0.0213,-0.018,-0.0182,-0.0186,-0.0215,-0.0212,-0.017,0,0,0,0,0,-0.0171,-0.0191,-0.0245,-0.0313,-0.038,-0.0413,-0.0505,-0.0546,-0.06,-0.0586,-0.0596,-0.0533,-0.042,-0.0384,-0.0288,-0.0294,-0.0197,-0.0178,-0.0159,-0.0115,-0.012,-0.0147,0,0,0,0,0,0,-0.0174,-0.0213,-0.0231,-0.0292,-0.0327,-0.04,-0.0449,-0.0493,-0.049,-0.0532,-0.0474,-0.0475,-0.0368,-0.045,-0.0266,-0.0247,-0.0216,-0.0139,-0.0136,-0.0112,-0.0117,-0.0121,-0.015,0,0,0,0,0]}]]